Other Public Products
Issued by NWS Grand Forks, ND

Home | Current Version | Previous Version | Graphics & Text | Print | Product List | Glossary On
Versions: 1 2 3 4 5 6 7 8 9 10 11 12 13 14 15 16 17 18 19 20 21 22 23 24 25 26 27 28 29 30 31 32 33 34 35 36 37 38 39 40 41 42 43 44 45 46 47 48 49 50
000
FPUS83 KFGF 250431
OPUFGF
PRAIRIE TO PINES WEATHER ROUNDUP
NATIONAL WEATHER SERVICE EASTERN NORTH DAKOTA/GRAND FORKS ND
1000 PM CST WED DEC 24 2014

 **SATELLITE DATA USED TO AUGMENT SKY COVER AT AUTOMATED STATIONS**
 *****  WEATHER ACROSS EASTERN NORTH DAKOTA  *****

CITY           SKY/WX    TMP DP  RH WIND       PRES   REMARKS
GRAND FORKS    CLOUDY    30  27  88 S8        29.42F WCI  22
GRAND FORKS AF CLOUDY    30  30  99 SW7       29.41F WCI  23
GRAND CITY NWS   N/A     30 N/A N/A SW12        N/A  WCI  21
BUXTON           N/A     29  29  98 S9          N/A  WCI  21
DEVILS LAKE    PTCLDY    23  19  86 W9        29.39S WCI  13
FARGO          CLOUDY    30  26  85 S14       29.47F WCI  19
WAHPETON ARPT  CLOUDY    30  27  86 S10       29.49F WCI  21
$$

 *****  WEATHER ACROSS CENTRAL AND WESTERN NORTH DAKOTA  *****

CITY           SKY/WX    TMP DP  RH WIND       PRES   REMARKS
JAMESTOWN      CLOUDY    30  26  85 SW7       29.43S WCI  23
BISMARCK       CLOUDY    30  28  92 W3        29.47S
MINOT          CLEAR     28  21  75 W13       29.44R WCI  17
MINOT AFB      CLEAR     26  26  98 W15       29.44R WCI  14
GARRISON         N/A     27  23  85 NW9       29.45S WCI  18
WILLISTON      PTCLDY    22  19  89 CALM      29.50R
DICKINSON      CLOUDY    33  28  81 NW7       29.46S
HETTINGER      CLOUDY    33  30  88 NW8       29.47R
$$

 *****  OTHER OBSERVATIONS NORTHEAST NORTH DAKOTA  *****

CITY           SKY/WX    TMP DP  RH WIND       PRES   REMARKS
WALHALLA         N/A     27  27 100 W8        29.39R WCI  18
LANGDON        CLOUDY    23  21  93 W12       29.36S WCI  12
CAVALIER       CLOUDY    28  27  93 SW6       29.39S WCI  22
GRAFTON        NOT AVBL
CANDO          FAIR      23  21  93 W12       29.40R WCI  12
FORT TOTTEN      N/A     24  23  95 W3        29.95
ROLLA          CLOUDY    25  25 100 NW10      29.39R WCI  15
RUGBY          FAIR      19  19 100 W14       29.42S WCI   6
 ***** THE ABOVE OBSERVATIONS ARE NON NWS ARE NOT QUALITY
        CONTROLLED AND MAY MIS-REPORT RAIN FOR SNOW...
$$

 *****  OTHER OBSERVATIONS SOUTHEAST NORTH DAKOTA *****

CITY           SKY/WX    TMP DP  RH WIND       PRES   REMARKS
COOPERSTOWN    NOT AVBL
VALLEY CITY    MOCLDY    28  28 100 SW12      29.43F WCI  18
OAKES          LGT SNOW  28  28 100 SW12      29.47S WCI  18
GWINNER        CLOUDY    30  30 100 CALM      29.47F
BUFFALO        NOT AVBL
WYNDMERE         N/A     28  27  93 SW10        N/A  WCI  19
 ***** THE ABOVE OBSERVATIONS ARE NON NWS ARE NOT QUALITY
       CONTROLLED AND MAY MIS-REPORT RAIN FOR SNOW...
$$

  *****  WEATHER ACROSS NORTHERN MINNESOTA  *****

CITY           SKY/WX    TMP DP  RH WIND       PRES   REMARKS
FLAG ISLAND    LGT SNOW  28  27  93 S7        29.40F WCI  21
WARROAD        CLOUDY    28  25  86 SW7       29.41F WCI  21
ROSEAU         CLOUDY    28  25  86 S10       29.41F WCI  19
HALLOCK        CLOUDY    28  27  93 S12       29.39F FOG     WCI  18
THF RVR FALLS  CLOUDY    28  27  93 S13       29.43S WCI  18
HALSTAD          N/A     29  27  91 SW16        N/A  WCI  17
FOSSTON        CLOUDY    27  25  93 S13       29.45F WCI  16
BAUDETTE       CLOUDY    30  26  85 S7        29.42F WCI  23
WASKISH        CLOUDY    30  28  93 CALM      29.43S
CROOKSTON      CLOUDY    28  27  93 SW16      29.44F WCI  17
$$
  *****  WEATHER ACROSS CENTRAL AND WEST MINNESOTA  *****

CITY           SKY/WX    TMP DP  RH WIND       PRES   REMARKS
BEMIDJI        CLOUDY    28  26  89 S6        29.44S WCI  22
PARK RAPIDS    CLOUDY    28  25  88 S10       29.46F WCI  19
WADENA         CLOUDY    27  27 100 S10       29.48F WCI  17
DETROIT LAKES  MOCLDY    28  28 100 S7        29.47S WCI  21
MOORHEAD       CLOUDY    30  30 100 S9        29.49F WCI  22
FERGUS FALLS   CLOUDY    28  27  93 S12       29.53S WCI  18
ELBOW LAKE     CLOUDY    28  27  96 S14       29.50F WCI  16
MORRIS MN      MOCLDY    28  27  93 S14       29.52F WCI  17
STAPLES        CLOUDY    28  27  93 SW10      29.50S WCI  19
WHEATON        CLOUDY    27  25  93 SE7       29.52F WCI  19
$$
  *****  WEATHER ELSEWHERE ACROSS MINNESOTA  *****

CITY           SKY/WX    TMP DP  RH WIND       PRES   REMARKS
DULUTH         CLOUDY    32  28  85 W12       29.48F WCI  23
INTRNTL FALLS  CLOUDY    31  29  92 S3        29.43F
ELY            LGT SNOW  30  30 100 CALM      29.46S
CLOQUET        CLOUDY    32  28  86 SW5       29.49F
BRAINERD       CLOUDY    30  27  88 S9        29.50F WCI  22
HIBBING        CLOUDY    32  29  88 SW5       29.46F
ALEXANDRIA     CLOUDY    28  26  92 S12       29.53F WCI  18
SAINT CLOUD    CLOUDY    33  27  78 SW9       29.55F
MINNEAPOLIS    CLOUDY    32  27  81 SW10      29.59F WCI  24
$$

  *****  WEATHER ACROSS SOUTH DAKOTA  *****

CITY           SKY/WX    TMP DP  RH WIND       PRES   REMARKS
SIOUX FALLS    CLOUDY    26  24  92 S17       29.58F WCI  13
BROOKINGS      NOT AVBL
WATERTOWN      CLOUDY    25  23  92 S9        29.50F WCI  15
HURON          MOCLDY    25  23  92 S12       29.50F WCI  14
SISSETON         N/A     33  23  66 SW14G24   29.47F WCI  23
ABERDEEN       CLOUDY    28  25  88 S12       29.50F WCI  18
MITCHELL       MOCLDY    27  24  89 S13       29.53F WCI  16
PIERRE         CLOUDY    27  23  85 CALM      29.47S
MOBRIDGE       CLOUDY    28  24  85 SE7       29.44F WCI  21
RAPID CITY     CLOUDY    38  28  67 NW10      29.39F
$$

  *****  SOME WEATHER IN NEARBY STATES *****

CITY           SKY/WX    TMP DP  RH WIND       PRES   REMARKS
GLASGOW MT     MOCLDY    28  24  85 NW7       29.54R WCI  21
GREAT FALLS MT LGT SNOW  30  28  93 N17       29.55R VSB 1   WCI  18
CHEYENNE WY    CLOUDY    39  18  42 W15       29.50F
SCOTTSBLUFF NE CLOUDY    32  26  78 CALM      29.48F
OMAHA NE       CLEAR     29  27  92 S9        29.72F WCI  20
DES MOINES IA  CLOUDY    32  28  85 SW15      29.74R WCI  22
DAVENPORT IA   CLOUDY    34  29  82 W15       29.70R WCI  24
CHICAGO IL     CLOUDY    36  32  85 W12       29.58R
EAU CLAIRE WI  CLOUDY    33  29  85 SW6       29.57S
LA CROSSE WI   CLOUDY    36  29  75 W9        29.62R
$$

  *****  SOME NATIONAL WEATHER *****

CITY           SKY/WX    TMP DP  RH WIND       PRES   REMARKS
LA GUARDIA NY  FOG       53  52  96 SW6       29.57F VSB 1/4
RALEIGH NC     CLOUDY    65  60  84 SW13      29.67S
ATLANTA GA     CLOUDY    47  41  80 W9        29.89R
NEW ORLEANS LA MOCLDY    49  33  54 W10       30.13R
OKLAHOMA CITY  CLEAR     31  24  75 S7        29.91F WCI  24
ALBUQUERQUE NM CLOUDY    31  14  49 E7        29.94F WCI  24
SALT LAKE CITY CLOUDY    44  24  45 S17G23    29.43F
LOS ANGELES CA CLOUDY    61  59  94 W8        29.86F
BOISE ID       CLOUDY    34  30  86 NW24G33   29.55R WCI  21
SEATTLE WA     PTCLDY    43  36  76 E5        30.00R
$$

*** WEATHER ACROSS MANITOBA...SASKATCHEWAN AND ONTARIO ***
                ***ONTARIO***

CITY           SKY/WX    TMP DP  RH WIND       PRES   REMARKS
GERALDTON      LGT SNOW  23  21  93 NE5       29.41F WCI  17
THUNDER BAY    CLOUDY    30  28  93 CALM      29.46F
SIOUX LOOKOUT  LGT SNOW  30  30 100 SE2       29.41
TORONTO        LGT RAIN  50  46  87 SW20G28   29.18F
BIG TROUT LK   CLOUDY    23  23 100 SE5       29.52F WCI  17
PICKLE LAKE    NOT AVBL
DRYDEN         LGT SNOW  30  28  93 W6        29.40F WCI  24
KENORA         LGT SNOW  28  27  93 S8        29.39F WCI  20
$$
                *** MANITOBA***

CITY           SKY/WX    TMP DP  RH WIND       PRES   REMARKS
BRANDON        CLOUDY    27  23  86 NW20G26   29.39S WCI  13
DAUPHIN        FLURRIES  27  25  93 NW8       29.38R WCI  18
ISLAND LAKE    FLURRIES  23  21  93 NE3       29.46F
PILOT MOUND      N/A     27  25  93 NW12        N/A  WCI  16
THE PAS        CLOUDY    23  21  93 N9        29.47S FOG     WCI  13
THOMPSON       FLURRIES  18  16  93 NE5       29.52S WCI  11
WINNIPEG       CLOUDY    27  25  93 S12       29.37F WCI  16
CHURCHILL      CLOUDY    16  14  93 SE7       29.63F WCI   6
GILLAM         LGT SNOW  18  16  93 E3        29.57
$$
                ***SASKATCHEWAN***

CITY           SKY/WX    TMP DP  RH WIND       PRES   REMARKS
ESTEVAN        MOCLDY    21  18  86 W7        29.46R WCI  13
KINDERSLEY     CLOUDY    25  21  86 N22G28    29.60R WCI  10
LLOYDMINSTER   MOCLDY    14  12  92 N16G22    29.66R WCI  -2
PRINCE ALBERT  FLURRIES  25  21  86 NW10      29.54R WCI  15
REGINA         CLOUDY    27  25  93 NW16      29.47R WCI  14
YORKTON        LGT SNOW  25  23  93 NW16G22   29.41S WCI  12
N. BATTLEFORD  FLURRIES  21  19  93 NW16G23   29.62R WCI   7



USA.gov is the U.S. government's official web portal to all federal, state and local government web resources and services.